Weather History for St. Augustine, FL

Change the Weather History Date:

Friday, July 25, 2014

  Actual Average Record
Temperature  
Mean Temperature 84 °F -  
Max Temperature 93 °F 86 °F 99 °F (1983)
Min Temperature 75 °F 71 °F 67 °F (1988)
Cooling Degree Days 18    
Growing Degree Days 34 (Base 50)    
Moisture  
Dew Point 73 °F    
Average Humidity 72    
Maximum Humidity 88    
Minimum Humidity 57    
Precipitation  
Precipitation 0.00 in - - ()
Sea Level Pressure  
Sea Level Pressure 30.05 in    
Wind  
Wind Speed 6 mph (SSW)    
Max Wind Speed 15 mph    
Max Gust Speed -    
Visibility 10 miles    
Events Rain , Thunderstorm    
Averages and records for this station are not official NWS values.
T = Trace of Precipitation, MM = Missing Value Source: NWS Daily Summary

Daily Weather History Graph

Daily Weather History Graph

Search for Another Location

Airport:

Trip Planner

Search our weather history database for the weather conditions in past years. The results will help you decide how hot, cold, wet, or windy it might be!

Date:

Astronomy

Jul. 25, 2014 Rise Set
Actual Time 6:40 AM EDT 8:23 PM EDT
Civil Twilight 6:13 AM EDT 8:49 PM EDT
Nautical Twilight 5:42 AM EDT 9:21 PM EDT
Astronomical Twilight 5:08 AM EDT 9:54 PM EDT
Moon 5:35 AM EDT (7/25) 7:23 PM EDT (7/25)
Length of Visible Light 14h 35m
Length of Day
13h 42m
Waning Crescent, 1% of the Moon is Illuminated
Jul 25
Waning Crescent
Jul 26
New
Aug 3
First Quarter
Aug 10
Full
Aug 17
Last Quarter

Hourly Weather History & Observations

Time (EDT) Temp. Heat Index Dew Point Humidity Pressure Visibility Wind Dir Wind Speed Gust Speed Precip Events Conditions
12:58 AM 80.1 °F 84.5 °F 73.9 °F 81% 30.03 in 10.0 mi WSW 4.6 mph - N/A   Clear
1:58 AM 79.0 °F - 73.0 °F 82% 30.03 in 10.0 mi SW 3.5 mph - N/A   Clear
2:58 AM 78.1 °F - 73.0 °F 84% 30.03 in 10.0 mi WSW 3.5 mph - N/A   Clear
3:58 AM 78.1 °F - 73.0 °F 84% 30.02 in 10.0 mi WSW 4.6 mph - N/A   Clear
4:58 AM 77.0 °F - 73.0 °F 88% 30.03 in 10.0 mi WSW 5.8 mph - N/A   Clear
5:58 AM 77.0 °F - 73.0 °F 88% 30.05 in 10.0 mi SW 4.6 mph - N/A   Clear
6:58 AM 77.0 °F - 73.0 °F 88% 30.06 in 10.0 mi WSW 4.6 mph - N/A   Clear
7:58 AM 81.0 °F 86.7 °F 75.0 °F 82% 30.08 in 10.0 mi SW 4.6 mph - N/A   Clear
8:58 AM 87.1 °F 96.3 °F 75.0 °F 67% 30.08 in 10.0 mi Variable 5.8 mph - N/A   Clear
9:58 AM 88.0 °F 97.5 °F 75.0 °F 65% 30.08 in 10.0 mi SW 6.9 mph - N/A   Partly Cloudy
10:51 AM 89.6 °F 98.2 °F 73.4 °F 59% 30.08 in 10.0 mi Variable 5.8 mph - N/A   Mostly Cloudy
10:58 AM 90.0 °F 97.9 °F 73.0 °F 57% 30.08 in 10.0 mi WNW 9.2 mph - N/A   Mostly Cloudy
11:04 AM 89.6 °F 98.2 °F 73.4 °F 59% 30.08 in 10.0 mi WSW 8.1 mph - N/A   Mostly Cloudy
11:58 AM 90.0 °F 97.9 °F 73.0 °F 57% 30.08 in 10.0 mi WNW 3.5 mph - N/A   Mostly Cloudy
12:58 PM 88.0 °F 96.5 °F 73.9 °F 63% 30.07 in 10.0 mi SSE 9.2 mph - 0.00 in   Scattered Clouds
1:52 PM 87.8 °F 93.8 °F 71.6 °F 58% 30.06 in 10.0 mi Variable 3.5 mph - 0.00 in Rain , Thunderstorm Light Rain
1:58 PM 88.0 °F 95.6 °F 73.0 °F 61% 30.07 in 10.0 mi East 8.1 mph - 0.00 in Rain , Thunderstorm Light Rain
2:14 PM 87.8 °F 97.6 °F 75.2 °F 66% 30.06 in 5.0 mi SE 13.8 mph - 0.00 in Thunderstorm Haze
2:58 PM 87.1 °F 94.5 °F 73.0 °F 63% 30.07 in 5.0 mi SSE 9.2 mph - 0.00 in Thunderstorm Haze
3:10 PM 84.2 °F 90.9 °F 73.4 °F 70% 30.06 in 10.0 mi Variable 6.9 mph - N/A   Scattered Clouds
3:58 PM 88.0 °F 97.5 °F 75.0 °F 65% 30.04 in 10.0 mi South 4.6 mph - N/A   Clear
4:35 PM 87.8 °F 95.6 °F 73.4 °F 62% 30.02 in 9.0 mi SSE 15.0 mph - N/A Thunderstorm Clear
4:57 PM 84.9 °F 92.1 °F 73.9 °F 69% 30.03 in 10.0 mi SSW 11.5 mph - N/A   Scattered Clouds
5:58 PM 80.1 °F 84.2 °F 73.0 °F 79% 30.03 in 10.0 mi SSW 6.9 mph - N/A   Clear
6:58 PM 79.0 °F - 69.1 °F 72% 30.04 in 10.0 mi South 9.2 mph - N/A   Partly Cloudy
7:58 PM 78.1 °F - 71.1 °F 79% 30.05 in 10.0 mi South 8.1 mph - N/A   Clear
8:58 PM 77.0 °F - 71.1 °F 82% 30.05 in 10.0 mi South 9.2 mph - N/A   Clear
9:58 PM 77.0 °F - 71.1 °F 82% 30.04 in 10.0 mi SSW 9.2 mph - N/A   Clear
10:58 PM 75.9 °F - 72.0 °F 87% 30.08 in 10.0 mi SW 6.9 mph - N/A   Clear